TimeCDT,TemperatureF,Dew PointF,Humidity,Sea Level PressureIn,VisibilityMPH,Wind Direction,Wind SpeedMPH,Gust SpeedMPH,PrecipitationIn,Events,Conditions,WindDirDegrees,DateUTC
12:53 AM,66.9,64.0,90,29.99,6.0,Calm,Calm,-,N/A,,Scattered Clouds,0,2013-07-27 05:53:00
1:53 AM,66.0,63.0,90,29.98,6.0,Calm,Calm,-,N/A,,Clear,0,2013-07-27 06:53:00
2:53 AM,64.9,63.0,93,29.97,7.0,Calm,Calm,-,N/A,,Clear,0,2013-07-27 07:53:00
3:53 AM,64.9,63.0,93,29.97,4.0,Calm,Calm,-,N/A,,Clear,0,2013-07-27 08:53:00
4:53 AM,64.9,63.0,93,29.97,5.0,Calm,Calm,-,N/A,,Clear,0,2013-07-27 09:53:00
5:53 AM,64.9,63.0,93,29.98,7.0,Calm,Calm,-,N/A,,Scattered Clouds,0,2013-07-27 10:53:00
6:53 AM,66.0,64.0,93,29.98,4.0,Calm,Calm,-,N/A,,Clear,0,2013-07-27 11:53:00
7:53 AM,68.0,64.0,87,29.99,9.0,Calm,Calm,-,N/A,,Mostly Cloudy,0,2013-07-27 12:53:00
8:53 AM,69.1,64.9,87,29.99,7.0,Calm,Calm,-,0.00,Rain,Light Rain,0,2013-07-27 13:53:00
9:04 AM,69.8,66.2,88,30.04,7.0,Calm,Calm,-,0.00,Thunderstorm,Mostly Cloudy,0,2013-07-27 14:04:00
9:18 AM,69.8,66.2,88,30.03,7.0,Calm,Calm,-,0.00,Thunderstorm,Overcast,0,2013-07-27 14:18:00
9:39 AM,69.8,66.2,88,30.04,7.0,Calm,Calm,-,0.00,Rain,Light Rain,0,2013-07-27 14:39:00
9:53 AM,69.1,66.0,90,29.99,4.0,Variable,3.5,-,0.01,Rain,Light Rain,0,2013-07-27 14:53:00
10:33 AM,69.8,66.2,88,30.04,7.0,Calm,Calm,-,0.01,,Overcast,0,2013-07-27 15:33:00
10:53 AM,70.0,66.0,87,29.99,8.0,Calm,Calm,-,0.01,,Overcast,0,2013-07-27 15:53:00
11:51 AM,73.4,66.2,78,30.02,10.0,WNW,3.5,-,N/A,,Overcast,300,2013-07-27 16:51:00
11:53 AM,73.9,66.9,79,29.97,10.0,Calm,Calm,-,N/A,,Overcast,0,2013-07-27 16:53:00
12:26 PM,75.2,66.2,73,30.00,10.0,West,4.6,-,N/A,,Scattered Clouds,280,2013-07-27 17:26:00
12:53 PM,75.9,66.0,71,29.95,10.0,WNW,5.8,-,N/A,,Overcast,290,2013-07-27 17:53:00
1:14 PM,73.4,64.4,73,30.00,1.8,WSW,3.5,-,0.03,Rain,Light Rain,250,2013-07-27 18:14:00
1:22 PM,75.2,66.2,73,30.00,5.0,NNW,3.5,-,0.03,Rain,Light Rain,330,2013-07-27 18:22:00
1:53 PM,73.9,66.9,79,29.94,10.0,South,3.5,-,0.03,,Mostly Cloudy,190,2013-07-27 18:53:00
2:53 PM,75.9,64.9,69,29.92,10.0,Calm,Calm,-,N/A,,Scattered Clouds,0,2013-07-27 19:53:00
3:53 PM,78.1,64.9,64,29.91,10.0,Variable,3.5,-,N/A,,Mostly Cloudy,0,2013-07-27 20:53:00
4:53 PM,78.1,64.0,62,29.90,10.0,WNW,6.9,-,N/A,,Mostly Cloudy,290,2013-07-27 21:53:00
5:53 PM,77.0,64.0,64,29.91,10.0,WNW,5.8,-,N/A,,Scattered Clouds,300,2013-07-27 22:53:00
6:53 PM,73.9,64.9,73,29.91,10.0,WNW,4.6,-,N/A,,Clear,290,2013-07-27 23:53:00
7:53 PM,71.1,66.0,84,29.92,9.0,Calm,Calm,-,N/A,,Clear,0,2013-07-28 00:53:00
8:53 PM,69.1,66.0,90,29.94,7.0,West,3.5,-,N/A,,Clear,280,2013-07-28 01:53:00
9:53 PM,66.9,64.0,90,29.94,4.0,Calm,Calm,-,N/A,,Clear,0,2013-07-28 02:53:00
10:11 PM,66.2,64.4,94,29.99,2.0,Calm,Calm,-,N/A,,Clear,0,2013-07-28 03:11:00
10:28 PM,66.2,64.4,94,30.00,1.2,Calm,Calm,-,N/A,,Clear,0,2013-07-28 03:28:00
10:39 PM,66.2,64.4,94,30.00,2.5,Calm,Calm,-,N/A,,Clear,0,2013-07-28 03:39:00
10:53 PM,66.0,64.0,93,29.95,2.0,Calm,Calm,-,N/A,,Clear,0,2013-07-28 03:53:00
11:08 PM,66.2,64.4,94,30.00,0.8,Calm,Calm,-,N/A,,Clear,0,2013-07-28 04:08:00
11:16 PM,66.2,62.6,88,30.00,0.5,Calm,Calm,-,N/A,Fog,Fog,0,2013-07-28 04:16:00
11:20 PM,66.2,62.6,88,29.99,1.0,Calm,Calm,-,N/A,,Clear,0,2013-07-28 04:20:00
11:28 PM,66.2,62.6,88,30.00,2.5,Calm,Calm,-,N/A,,Clear,0,2013-07-28 04:28:00
11:38 PM,64.4,62.6,94,30.00,1.2,Calm,Calm,-,N/A,,Clear,0,2013-07-28 04:38:00
11:42 PM,64.4,62.6,94,30.00,0.5,Calm,Calm,-,N/A,Fog,Fog,0,2013-07-28 04:42:00
11:51 PM,66.2,62.6,88,30.00,1.0,Calm,Calm,-,N/A,,Clear,0,2013-07-28 04:51:00
11:53 PM,64.9,63.0,93,29.94,1.5,Calm,Calm,-,N/A,,Partly Cloudy,0,2013-07-28 04:53:00
11:57 PM,64.4,62.6,94,30.00,3.0,Calm,Calm,-,N/A,,Scattered Clouds,0,2013-07-28 04:57:00